QPF
0.00 0.00 0.00 0.00 0.00 0.00 0.00 0.00 0.00 0.00 0.00 0.00 0.00 0.00 0.00 0.00 0.00 0.00 0.00 0.00 0.00 0.00 0.00 0.00 0.00 0.00 0.00 0.00 0.01 0.06 0.06 0.02 0.00 0.00 0.01 0.02 0.00 0.04 0.05 0.04 0.01 0.01 0.01 0.00
0.00 0.00 0.00 0.00 0.00 0.00 0.00 0.00 0.00 0.00 0.00 0.00 0.00 0.00 0.00 0.00 0.00 0.00 0.00 0.00 0.00 0.00 0.00 0.00 0.00 0.00 0.00 0.00 0.00 0.00 0.01 0.00 0.00 0.00 0.00 0.06 0.09 0.15 0.30 0.21 0.14 0.05 0.04 0.04
0.00 0.00 0.00 0.00 0.00 0.00 0.00 0.00 0.00 0.00 0.00 0.00 0.00 0.00 0.00 0.00 0.00 0.00 0.00 0.00 0.00 0.00 0.00 0.00 0.00 0.00 0.00 0.00 0.00 0.00 0.00 0.00 0.00 0.00 0.01 0.09 0.13 0.24 0.41 0.44 0.33 0.27 0.21 0.25
0.00 0.00 0.00 0.00 0.00 0.00 0.00 0.00 0.00 0.00 0.00 0.00 0.00 0.00 0.00 0.00 0.00 0.00 0.00 0.00 0.00 0.00 0.00 0.00 0.00 0.00 0.00 0.00 0.00 0.00 0.00 0.00 0.00 0.00 0.00 0.02 0.03 0.05 0.08 0.13 0.14 0.19 0.33 0.36
0.00 0.00 0.00 0.00 0.00 0.00 0.00 0.00 0.00 0.00 0.00 0.00 0.00 0.00 0.00 0.00 0.00 0.00 0.00 0.00 0.00 0.00 0.00 0.00 0.00 0.00 0.00 0.00 0.00 0.00 0.00 0.00 0.00 0.00 0.00 0.00 0.00 0.00 0.01 0.03 0.04 0.08 0.14 0.15
0.00 0.00 0.00 0.00 0.00 0.00 0.00 0.00 0.00 0.00 0.00 0.00 0.00 0.00 0.00 0.00 0.00 0.00 0.00 0.00 0.00 0.00 0.00 0.00 0.00 0.00 0.00 0.00 0.00 0.00 0.00 0.00 0.00 0.00 0.00 0.00 0.00 0.00 0.00 0.00 0.00 0.01 0.02 0.03
0.00 0.00 0.00 0.00 0.00 0.00 0.00 0.00 0.00 0.00 0.00 0.00 0.00 0.00 0.00 0.00 0.00 0.00 0.00 0.00 0.00 0.00 0.00 0.00 0.00 0.00 0.00 0.00 0.00 0.00 0.00 0.00 0.00 0.00 0.00 0.00 0.00 0.00 0.00 0.00 0.00 0.00 0.00 0.01
0.00 0.00 0.00 0.00 0.00 0.00 0.00 0.00 0.00 0.00 0.00 0.00 0.00 0.00 0.00 0.00 0.00 0.00 0.00 0.00 0.00 0.00 0.00 0.00 0.00 0.00 0.00 0.00 0.00 0.00 0.00 0.00 0.00 0.00 0.00 0.00 0.00 0.00 0.00 0.00 0.00 0.00 0.00 0.00
0.00 0.00 0.00 0.00 0.00 0.00 0.00 0.00 0.00 0.00 0.00 0.00 0.00 0.00 0.00 0.00 0.00 0.00 0.00 0.00 0.00 0.00 0.00 0.00 0.00 0.00 0.00 0.00 0.00 0.00 0.00 0.00 0.00 0.00 0.00 0.00 0.00 0.00 0.00 0.00 0.00 0.00 0.00 0.00
0.00 0.00 0.00 0.00 0.00 0.00 0.00 0.00 0.00 0.00 0.00 0.00 0.00 0.00 0.00 0.00 0.00 0.00 0.00 0.00 0.00 0.00 0.00 0.00 0.00 0.00 0.00 0.00 0.00 0.00 0.00 0.00 0.00 0.00 0.00 0.00 0.00 0.00 0.00 0.00 0.00 0.00 0.00 0.00
0.00 0.00 0.00 0.00 0.00 0.00 0.00 0.00 0.00 0.00 0.00 0.00 0.00 0.00 0.00 0.00 0.00 0.00 0.00 0.00 0.00 0.00 0.00 0.00 0.00 0.00 0.00 0.00 0.00 0.00 0.00 0.00 0.00 0.00 0.00 0.00 0.00 0.00 0.00 0.00 0.00 0.00 0.00 0.00
0.00 0.00 0.00 0.00 0.00 0.00 0.00 0.00 0.00 0.00 0.00 0.00 0.00 0.00 0.00 0.00 0.00 0.00 0.00 0.00 0.00 0.00 0.00 0.00 0.00 0.00 0.00 0.00 0.00 0.00 0.00 0.00 0.00 0.00 0.00 0.00 0.00 0.00 0.00 0.00 0.00 0.00 0.00 0.00
0.00 0.00 0.00 0.00 0.00 0.00 0.00 0.00 0.00 0.00 0.00 0.00 0.00 0.00 0.00 0.00 0.00 0.00 0.00 0.00 0.00 0.00 0.00 0.00 0.00 0.00 0.00 0.00 0.00 0.00 0.00 0.00 0.00 0.00 0.00 0.00 0.00 0.00 0.00 0.00 0.00 0.00 0.00 0.00
0.00 0.00 0.00 0.00 0.00 0.00 0.00 0.00 0.00 0.00 0.00 0.00 0.00 0.00 0.00 0.00 0.00 0.00 0.00 0.00 0.00 0.00 0.00 0.00 0.00 0.00 0.00 0.00 0.00 0.00 0.00 0.00 0.00 0.00 0.00 0.00 0.00 0.00 0.00 0.00 0.00 0.00 0.00 0.00
0.00 0.00 0.00 0.00 0.00 0.00 0.00 0.00 0.00 0.00 0.00 0.00 0.00 0.00 0.00 0.00 0.00 0.00 0.00 0.00 0.00 0.00 0.00 0.00 0.00 0.00 0.00 0.00 0.00 0.00 0.00 0.00 0.00 0.00 0.00 0.00 0.00 0.00 0.00 0.00 0.00 0.00 0.00 0.00
0.00 0.00 0.00 0.00 0.00 0.00 0.00 0.00 0.00 0.00 0.00 0.00 0.00 0.00 0.00 0.00 0.00 0.00 0.00 0.00 0.00 0.00 0.00 0.00 0.00 0.00 0.01 0.01 0.00 0.00 0.00 0.00 0.00 0.00 0.00 0.00 0.00 0.00 0.00 0.00 0.00 0.00 0.00 0.00
0.00 0.00 0.00 0.00 0.00 0.00 0.00 0.00 0.00 0.00 0.00 0.00 0.00 0.00 0.00 0.00 0.00 0.00 0.00 0.00 0.00 0.00 0.00 0.00 0.00 0.00 0.00 0.00 0.00 0.02 0.01 0.00 0.00 0.00 0.00 0.00 0.00 0.00 0.00 0.00 0.00 0.00 0.00 0.00
0.00 0.00 0.00 0.00 0.00 0.00 0.00 0.00 0.00 0.00 0.00 0.00 0.00 0.00 0.00 0.00 0.00 0.00 0.00 0.00 0.00 0.00 0.00 0.00 0.00 0.01 0.01 0.03 0.05 0.04 0.01 0.01 0.00 0.00 0.00 0.00 0.00 0.00 0.00 0.00 0.00 0.00 0.00 0.00
0.00 0.00 0.00 0.00 0.00 0.00 0.00 0.00 0.00 0.00 0.00 0.00 0.00 0.00 0.00 0.00 0.00 0.00 0.00 0.00 0.00 0.00 0.00 0.00 0.00 0.00 0.01 0.01 0.01 0.01 0.01 0.00 0.01 0.01 0.00 0.00 0.00 0.00 0.00 0.00 0.00 0.00 0.00 0.00
0.00 0.00 0.00 0.00 0.00 0.00 0.00 0.00 0.00 0.00 0.00 0.00 0.00 0.00 0.00 0.00 0.00 0.00 0.00 0.00 0.00 0.00 0.00 0.00 0.00 0.00 0.00 0.01 0.01 0.01 0.00 0.01 0.00 0.00 0.00 0.00 0.00 0.00 0.00 0.00 0.00 0.00 0.00 0.00
0.00 0.00 0.00 0.00 0.00 0.00 0.00 0.00 0.00 0.00 0.00 0.00 0.00 0.00 0.00 0.00 0.00 0.00 0.00 0.00 0.00 0.00 0.00 0.00 0.00 0.00 0.00 0.00 0.00 0.00 0.00 0.00 0.00 0.00 0.00 0.00 0.00 0.00 0.00 0.00 0.00 0.00 0.00 0.00
0.00 0.00 0.00 0.00 0.00 0.00 0.00 0.00 0.00 0.00 0.00 0.00 0.00 0.00 0.00 0.00 0.00 0.00 0.00 0.00 0.00 0.00 0.01 0.01 0.00 0.00 0.00 0.00 0.00 0.00 0.00 0.00 0.00 0.00 0.00 0.00 0.00 0.00 0.00 0.00 0.00 0.00 0.00 0.00
0.00 0.00 0.00 0.00 0.00 0.00 0.00 0.00 0.00 0.00 0.00 0.00 0.00 0.00 0.00 0.00 0.00 0.00 0.00 0.00 0.00 0.00 0.00 0.00 0.00 0.00 0.00 0.00 0.00 0.00 0.00 0.00 0.00 0.00 0.00 0.00 0.00 0.00 0.00 0.00 0.00 0.00 0.00 0.00
0.00 0.00 0.00 0.00 0.00 0.00 0.00 0.00 0.00 0.00 0.00 0.00 0.00 0.00 0.00 0.00 0.00 0.00 0.00 0.00 0.00 0.00 0.00 0.00 0.00 0.00 0.00 0.00 0.00 0.00 0.00 0.00 0.00 0.00 0.00 0.00 0.00 0.00 0.00 0.00 0.00 0.00 0.00 0.00
0.00 0.00 0.00 0.00 0.00 0.00 0.00 0.00 0.00 0.00 0.00 0.00 0.00 0.00 0.00 0.00 0.00 0.00 0.00 0.00 0.00 0.00 0.00 0.00 0.00 0.00 0.00 0.00 0.00 0.00 0.00 0.00 0.00 0.00 0.00 0.00 0.00 0.00 0.00 0.00 0.00 0.00 0.00 0.00
0.00 0.00 0.00 0.00 0.00 0.00 0.00 0.00 0.00 0.00 0.00 0.00 0.00 0.00 0.00 0.00 0.00 0.00 0.00 0.00 0.00 0.00 0.00 0.00 0.00 0.00 0.00 0.00 0.00 0.00 0.00 0.00 0.00 0.00 0.00 0.00 0.00 0.00 0.00 0.00 0.00 0.00 0.00 0.00
MSLP
1009.28 1010.11 1010.41 1010.15 1010.29 1010.06 1009.89 1010.00 1009.93 1009.30 1008.87 1008.93 1009.72 1010.54 1012.39 1013.55 1014.81 1016.56 1017.57 1019.23 1020.02 1020.28 1020.31 1020.16 1019.37 1018.63 1018.27 1017.88 1017.17 1016.79 1016.74 1016.64 1016.19 1015.76 1014.80 1014.27 1014.08 1013.34 1013.74 1014.35 1013.66 1013.25 1012.73 1012.42
1009.96 1010.01 1009.41 1009.38 1009.37 1009.52 1010.00 1010.27 1010.61 1010.04 1009.54 1009.87 1010.87 1012.28 1013.68 1014.90 1016.24 1017.25 1017.88 1018.45 1018.64 1019.02 1019.27 1019.48 1019.42 1019.11 1019.13 1018.58 1017.78 1017.30 1017.43 1017.20 1016.72 1016.31 1016.13 1015.43 1014.85 1014.87 1015.20 1015.04 1014.95 1014.05 1013.66 1013.11
1009.62 1009.14 1008.66 1008.83 1009.20 1009.70 1010.49 1010.80 1011.21 1011.62 1011.22 1011.25 1011.77 1013.25 1014.74 1016.59 1017.45 1018.18 1018.60 1018.98 1019.16 1019.33 1019.26 1018.95 1018.53 1018.56 1018.80 1018.49 1018.49 1018.63 1018.61 1018.34 1017.84 1017.21 1016.45 1015.84 1015.67 1015.94 1016.06 1015.82 1015.51 1014.83 1013.93 1014.34
1009.00 1008.64 1008.65 1008.93 1009.41 1009.81 1010.66 1011.02 1011.24 1011.77 1012.45 1012.70 1012.88 1015.25 1016.07 1017.26 1018.17 1018.55 1019.18 1019.30 1019.49 1019.33 1018.96 1018.76 1019.21 1019.35 1019.14 1019.31 1019.06 1018.93 1019.04 1018.91 1018.50 1018.01 1017.41 1016.99 1017.10 1016.98 1016.78 1016.57 1015.89 1015.33 1014.62 1014.57
1009.40 1008.93 1008.89 1009.39 1009.64 1009.84 1010.83 1011.07 1011.63 1012.26 1013.16 1013.91 1014.17 1015.53 1016.89 1017.74 1018.66 1019.10 1019.39 1019.42 1019.52 1019.47 1019.34 1019.48 1019.61 1019.72 1019.86 1020.02 1019.76 1019.43 1019.06 1019.01 1018.90 1018.68 1018.29 1018.07 1017.88 1017.76 1017.36 1017.01 1016.11 1015.62 1015.34 1015.23
1009.20 1008.92 1008.87 1009.24 1009.87 1010.29 1010.80 1011.69 1012.74 1013.72 1014.68 1015.79 1015.68 1016.03 1017.22 1017.69 1018.07 1019.00 1019.35 1019.60 1019.55 1019.54 1019.72 1019.72 1019.69 1019.77 1020.13 1020.08 1020.16 1020.15 1019.63 1019.37 1019.23 1018.85 1018.70 1018.56 1018.52 1018.48 1018.00 1017.66 1017.03 1016.39 1015.67 1015.43
1010.00 1009.80 1009.46 1009.31 1010.12 1010.86 1011.68 1013.47 1015.08 1016.17 1016.69 1016.57 1015.65 1016.21 1016.93 1017.28 1017.88 1018.37 1018.93 1019.36 1019.46 1019.44 1019.57 1019.68 1019.86 1020.02 1020.11 1020.30 1020.54 1020.59 1020.15 1019.87 1019.60 1019.39 1019.17 1018.90 1018.62 1018.45 1018.36 1017.93 1017.76 1016.95 1016.27 1015.85
1011.25 1011.00 1010.45 1010.14 1010.82 1011.80 1012.73 1014.15 1015.79 1017.02 1017.85 1017.27 1016.06 1016.54 1016.94 1017.13 1017.45 1017.81 1018.40 1018.77 1019.15 1019.32 1019.40 1019.78 1020.01 1020.06 1020.33 1020.56 1020.76 1020.70 1020.44 1020.32 1020.12 1019.96 1019.87 1019.56 1019.30 1019.09 1018.81 1018.45 1017.90 1017.61 1017.20 1016.86
1011.99 1011.87 1011.27 1011.07 1011.26 1011.97 1013.22 1014.35 1015.43 1016.86 1017.77 1018.15 1017.35 1017.29 1017.35 1017.49 1017.64 1017.99 1018.41 1018.70 1018.91 1019.12 1019.35 1019.57 1019.80 1020.18 1020.57 1020.79 1020.78 1020.65 1020.64 1020.61 1020.49 1020.33 1020.12 1019.97 1019.82 1019.66 1019.52 1019.20 1018.82 1018.44 1017.98 1017.38
1012.51 1012.77 1012.53 1012.15 1012.05 1012.39 1013.24 1014.20 1015.87 1017.54 1018.58 1018.82 1017.85 1017.30 1016.97 1017.52 1017.62 1017.86 1018.16 1018.42 1018.53 1018.71 1019.02 1019.45 1019.80 1020.28 1020.50 1020.63 1020.69 1020.64 1020.60 1020.56 1020.57 1020.49 1020.31 1020.13 1019.93 1019.75 1019.60 1019.47 1019.24 1018.83 1018.44 1018.02
1013.00 1013.88 1014.04 1013.31 1013.32 1013.59 1013.96 1014.77 1016.29 1017.74 1018.72 1019.19 1018.81 1017.51 1015.93 1016.33 1016.62 1016.90 1017.24 1017.36 1017.63 1018.01 1018.48 1018.99 1019.48 1019.86 1020.12 1020.37 1020.59 1020.77 1020.49 1020.56 1020.56 1020.38 1020.25 1020.11 1019.93 1019.75 1019.63 1019.48 1019.26 1019.00 1018.62 1018.21
1014.29 1015.27 1015.63 1015.08 1014.09 1013.93 1014.32 1015.25 1016.45 1018.26 1019.13 1019.26 1018.88 1017.26 1015.69 1015.41 1015.64 1016.01 1016.13 1016.44 1016.67 1017.32 1017.71 1018.31 1019.04 1019.57 1019.96 1020.28 1020.43 1020.38 1020.48 1020.43 1020.43 1020.24 1020.11 1020.00 1019.91 1019.80 1019.66 1019.49 1019.24 1019.01 1018.77 1018.37
1014.60 1016.31 1016.88 1016.09 1015.42 1014.94 1015.17 1015.66 1016.39 1017.68 1018.54 1019.11 1019.15 1017.46 1015.55 1015.58 1015.51 1015.25 1015.16 1015.38 1015.63 1016.32 1017.33 1018.26 1018.96 1019.27 1019.80 1020.11 1020.35 1020.39 1020.21 1020.06 1020.02 1019.97 1019.91 1019.79 1019.69 1019.58 1019.38 1019.23 1019.10 1019.12 1018.91 1018.48
1014.69 1016.65 1017.31 1017.15 1016.80 1016.44 1016.22 1016.18 1016.42 1017.21 1018.33 1018.37 1018.01 1016.98 1015.97 1015.55 1015.62 1015.17 1015.35 1015.56 1016.06 1016.75 1017.41 1018.13 1018.78 1019.12 1019.52 1019.77 1019.98 1020.24 1020.15 1019.92 1019.70 1019.59 1019.42 1019.36 1019.09 1018.98 1018.88 1018.76 1018.77 1018.61 1018.59 1018.55
1015.72 1017.29 1017.61 1017.47 1017.07 1016.75 1016.63 1016.54 1016.45 1016.75 1017.09 1017.58 1017.15 1016.94 1016.38 1015.89 1015.83 1015.80 1015.98 1016.39 1016.69 1016.92 1017.29 1017.74 1018.32 1018.78 1019.29 1019.59 1019.63 1019.72 1019.73 1019.68 1019.65 1019.62 1019.14 1018.86 1018.57 1018.45 1018.38 1018.31 1018.27 1018.34 1018.25 1017.90
1016.54 1017.60 1018.01 1018.07 1017.46 1017.13 1016.80 1016.31 1016.07 1016.10 1016.02 1016.53 1016.66 1016.79 1016.74 1016.57 1016.38 1016.67 1017.05 1017.03 1017.32 1017.56 1017.76 1017.91 1018.28 1018.73 1019.03 1019.05 1018.88 1019.28 1019.16 1018.77 1019.04 1019.14 1018.89 1018.27 1018.28 1018.14 1018.01 1018.05 1018.05 1017.98 1017.91 1017.75
1017.17 1018.20 1019.00 1019.08 1018.25 1017.72 1016.98 1015.93 1015.29 1015.42 1015.84 1016.01 1017.02 1017.58 1017.39 1017.55 1017.63 1017.92 1018.10 1018.18 1018.35 1018.40 1018.47 1018.45 1018.51 1018.73 1019.04 1019.16 1019.08 1019.13 1019.00 1018.83 1018.60 1018.60 1018.53 1018.34 1018.14 1017.88 1017.73 1017.80 1017.99 1018.16 1018.04 1017.90
1017.43 1018.60 1019.29 1019.77 1019.18 1018.43 1016.39 1015.49 1015.44 1016.19 1016.87 1017.03 1017.42 1017.68 1017.89 1017.99 1018.25 1018.23 1018.32 1018.57 1018.84 1018.80 1018.91 1018.96 1019.09 1019.29 1019.37 1019.28 1019.33 1019.35 1019.16 1018.88 1018.74 1018.66 1018.84 1018.64 1018.40 1018.41 1018.18 1018.20 1018.27 1018.26 1018.13 1017.94
1016.45 1018.19 1019.74 1020.23 1019.87 1018.32 1016.51 1015.51 1015.27 1015.61 1017.55 1017.68 1017.79 1018.07 1018.29 1018.48 1018.67 1019.14 1018.89 1018.79 1018.99 1019.09 1019.23 1019.35 1019.38 1019.39 1019.41 1019.29 1019.52 1019.65 1019.29 1019.05 1019.02 1019.18 1019.15 1019.17 1018.89 1018.86 1018.78 1018.74 1018.64 1018.14 1018.03 1017.76
1016.72 1017.54 1019.18 1020.51 1020.34 1019.02 1017.01 1015.89 1015.24 1015.56 1017.38 1017.68 1017.82 1018.13 1018.23 1018.40 1019.12 1019.58 1019.26 1019.09 1019.36 1019.29 1019.47 1019.70 1019.71 1019.66 1019.57 1019.82 1019.57 1019.75 1019.76 1019.18 1018.94 1019.08 1019.28 1019.33 1019.16 1018.93 1018.87 1018.82 1018.65 1018.17 1018.08 1017.78
1017.40 1018.64 1019.46 1020.25 1019.85 1018.40 1016.85 1015.98 1015.35 1016.44 1017.64 1017.52 1017.89 1018.20 1018.52 1018.94 1019.19 1019.30 1019.70 1019.94 1020.00 1019.96 1020.07 1020.11 1020.15 1020.33 1020.08 1019.79 1020.05 1019.93 1019.76 1019.87 1019.66 1019.58 1019.53 1019.55 1019.49 1019.22 1018.66 1018.72 1018.51 1018.22 1017.93 1017.77
1017.19 1018.60 1019.43 1019.96 1019.63 1018.01 1016.33 1016.14 1016.31 1016.95 1017.18 1017.49 1017.83 1018.23 1018.73 1019.15 1019.22 1019.76 1020.38 1020.50 1020.49 1020.37 1020.27 1020.20 1020.24 1020.12 1020.10 1020.04 1020.29 1020.62 1020.34 1020.24 1020.22 1020.11 1019.86 1019.77 1019.67 1019.09 1018.74 1018.61 1018.53 1018.24 1017.87 1018.05
1016.95 1017.11 1017.91 1018.52 1018.04 1016.79 1016.18 1016.17 1016.17 1016.70 1017.13 1017.55 1018.05 1018.64 1018.79 1019.35 1019.84 1020.20 1020.49 1020.53 1020.44 1020.39 1020.24 1020.18 1020.28 1020.50 1020.47 1020.46 1020.55 1020.78 1020.68 1020.61 1020.45 1020.32 1020.31 1020.07 1019.81 1019.56 1018.97 1018.80 1018.76 1018.45 1018.22 1018.26
1016.70 1016.60 1017.33 1017.51 1017.57 1016.94 1016.60 1016.52 1016.54 1016.86 1017.20 1017.58 1018.01 1018.55 1018.92 1019.62 1020.00 1020.35 1020.66 1020.82 1020.81 1020.76 1020.65 1020.69 1020.75 1020.78 1020.97 1020.80 1020.77 1020.74 1020.81 1020.77 1020.62 1020.60 1020.48 1020.52 1020.38 1019.62 1019.26 1019.01 1018.80 1018.79 1018.58 1018.40
1016.85 1016.67 1017.19 1017.45 1017.23 1017.07 1016.84 1016.66 1016.65 1016.81 1017.11 1017.73 1018.19 1018.57 1019.29 1019.73 1020.35 1020.56 1020.86 1020.86 1020.87 1020.90 1020.83 1020.87 1021.00 1021.05 1020.98 1020.90 1020.91 1020.88 1020.78 1020.79 1020.93 1020.92 1020.99 1020.76 1020.42 1020.12 1019.77 1019.43 1019.24 1018.92 1018.73 1018.62
1016.53 1016.58 1016.79 1016.91 1016.72 1016.70 1016.78 1016.59 1016.62 1016.97 1017.51 1017.94 1018.38 1018.98 1019.30 1019.61 1020.13 1020.49 1020.94 1020.97 1021.03 1021.12 1021.18 1021.18 1021.18 1021.17 1021.17 1021.09 1021.04 1020.97 1020.90 1020.87 1021.01 1021.02 1020.94 1020.82 1020.66 1020.38 1020.10 1019.72 1019.24 1018.91 1018.60 1018.41
Thickness
5766 5741 5736 5750 5754 5757 5765 5755 5745 5759 5773 5773 5771 5773 5751 5755 5748 5736 5732 5718 5713 5714 5713 5714 5722 5728 5731 5735 5739 5738 5742 5744 5750 5752 5758 5762 5762 5767 5761 5753 5759 5762 5765 5766
5744 5734 5760 5768 5773 5767 5752 5740 5732 5756 5767 5766 5760 5751 5744 5741 5734 5731 5730 5727 5728 5727 5724 5722 5721 5721 5717 5723 5731 5735 5730 5730 5737 5742 5741 5745 5752 5746 5743 5740 5737 5744 5746 5752
5732 5753 5776 5771 5761 5751 5740 5734 5732 5734 5747 5755 5750 5735 5727 5724 5721 5721 5723 5721 5721 5720 5719 5722 5724 5722 5719 5719 5718 5716 5714 5714 5718 5725 5732 5732 5732 5732 5726 5726 5725 5726 5731 5728
5752 5769 5764 5753 5748 5748 5727 5750 5747 5740 5723 5708 5742 5689 5713 5711 5707 5713 5710 5713 5711 5715 5718 5718 5711 5709 5711 5708 5709 5709 5706 5702 5703 5706 5711 5714 5709 5710 5712 5711 5715 5719 5722 5719
5741 5750 5750 5736 5743 5753 5734 5750 5744 5740 5724 5711 5717 5687 5692 5701 5692 5699 5704 5708 5707 5707 5708 5706 5703 5700 5697 5695 5695 5695 5698 5696 5694 5693 5693 5694 5694 5693 5695 5698 5704 5708 5710 5705
5745 5763 5755 5747 5749 5749 5753 5736 5721 5708 5697 5677 5702 5692 5675 5685 5695 5693 5697 5698 5701 5700 5697 5696 5696 5693 5688 5686 5683 5679 5682 5682 5681 5682 5681 5680 5678 5677 5678 5679 5685 5688 5693 5695
5729 5730 5747 5753 5731 5730 5721 5692 5659 5667 5659 5666 5698 5680 5677 5689 5695 5693 5691 5691 5693 5693 5690 5688 5685 5681 5679 5674 5670 5668 5666 5665 5666 5666 5666 5666 5667 5667 5666 5667 5666 5671 5673 5675
5695 5692 5725 5743 5726 5711 5712 5690 5655 5656 5647 5659 5690 5671 5671 5690 5692 5691 5689 5687 5685 5682 5681 5677 5674 5672 5667 5662 5657 5654 5653 5650 5649 5649 5648 5649 5648 5647 5649 5651 5653 5654 5655 5656
5690 5694 5724 5727 5728 5718 5702 5679 5688 5664 5665 5651 5663 5673 5677 5680 5679 5679 5675 5675 5673 5672 5670 5668 5665 5659 5655 5648 5644 5642 5638 5636 5635 5634 5634 5633 5632 5630 5629 5629 5631 5633 5634 5638
5705 5684 5705 5713 5718 5715 5698 5698 5664 5643 5641 5641 5652 5658 5654 5663 5666 5670 5668 5664 5665 5665 5665 5662 5657 5649 5643 5636 5630 5627 5626 5625 5622 5620 5620 5621 5621 5620 5617 5614 5613 5615 5616 5617
5702 5679 5681 5696 5685 5677 5676 5668 5662 5649 5636 5621 5620 5638 5674 5667 5667 5666 5666 5667 5664 5662 5660 5656 5649 5644 5634 5625 5617 5615 5617 5615 5612 5611 5610 5609 5609 5608 5607 5605 5603 5602 5603 5603
5687 5662 5656 5671 5684 5691 5683 5671 5653 5623 5632 5626 5618 5627 5680 5675 5667 5664 5664 5664 5660 5655 5652 5648 5641 5634 5626 5617 5611 5608 5607 5606 5604 5603 5602 5600 5598 5597 5595 5593 5592 5591 5590 5590
5680 5647 5630 5648 5658 5665 5661 5667 5660 5637 5623 5622 5599 5615 5669 5667 5664 5666 5665 5660 5661 5653 5644 5635 5629 5624 5616 5610 5603 5599 5598 5597 5595 5594 5594 5593 5591 5590 5589 5586 5583 5579 5577 5577
5675 5644 5634 5623 5635 5643 5641 5647 5652 5637 5608 5619 5616 5633 5652 5655 5651 5656 5653 5653 5649 5642 5635 5627 5621 5615 5607 5603 5597 5591 5587 5585 5586 5586 5586 5586 5587 5586 5583 5581 5577 5575 5570 5567
5657 5635 5640 5640 5645 5641 5638 5637 5641 5634 5629 5616 5627 5627 5634 5640 5643 5645 5637 5635 5633 5630 5627 5621 5611 5604 5597 5593 5591 5587 5581 5578 5577 5577 5580 5582 5580 5578 5576 5573 5570 5567 5565 5565
5644 5627 5636 5629 5637 5634 5628 5630 5632 5633 5636 5631 5626 5627 5626 5627 5631 5627 5623 5623 5619 5617 5613 5609 5603 5595 5590 5587 5585 5579 5577 5577 5572 5570 5570 5575 5573 5571 5569 5563 5560 5558 5557 5555
5631 5617 5608 5601 5623 5619 5606 5624 5632 5638 5630 5631 5609 5613 5615 5612 5613 5608 5606 5607 5604 5602 5599 5595 5592 5585 5579 5575 5573 5567 5565 5563 5565 5563 5562 5561 5560 5561 5561 5558 5552 5546 5543 5541
5613 5607 5594 5589 5602 5588 5615 5635 5632 5617 5613 5613 5608 5607 5605 5603 5601 5600 5599 5594 5590 5588 5586 5583 5578 5573 5568 5564 5559 5555 5552 5551 5550 5547 5541 5542 5543 5541 5540 5538 5535 5533 5531 5530
5624 5602 5589 5578 5577 5601 5617 5626 5628 5620 5596 5604 5600 5599 5598 5597 5593 5585 5588 5585 5580 5576 5571 5567 5563 5558 5555 5553 5548 5543 5542 5540 5536 5529 5528 5524 5523 5520 5519 5519 5518 5518 5516 5516
5614 5608 5592 5572 5574 5573 5604 5619 5629 5621 5580 5601 5596 5593 5591 5586 5568 5566 5574 5572 5565 5560 5556 5551 5547 5543 5540 5534 5535 5529 5524 5523 5524 5519 5513 5508 5509 5509 5507 5504 5503 5503 5501 5501
5596 5589 5580 5564 5560 5580 5606 5612 5621 5585 5577 5596 5590 5586 5583 5573 5569 5568 5558 5551 5548 5545 5541 5536 5531 5526 5526 5524 5518 5514 5511 5503 5503 5500 5498 5494 5490 5490 5492 5489 5488 5488 5488 5486
5592 5576 5573 5563 5560 5567 5607 5605 5592 5586 5588 5585 5583 5578 5570 5564 5560 5552 5542 5537 5533 5530 5527 5523 5519 5515 5512 5508 5502 5494 5491 5488 5486 5484 5481 5478 5473 5477 5478 5476 5473 5472 5473 5468
5589 5587 5577 5576 5573 5590 5601 5598 5598 5587 5582 5579 5569 5562 5558 5551 5543 5536 5528 5525 5522 5518 5515 5510 5504 5496 5493 5490 5485 5479 5476 5475 5473 5469 5465 5463 5460 5458 5461 5459 5456 5455 5455 5451
5590 5594 5582 5582 5583 5585 5586 5586 5582 5577 5573 5568 5562 5555 5549 5538 5530 5525 5517 5511 5505 5500 5494 5488 5482 5479 5475 5475 5473 5469 5465 5462 5459 5455 5453 5448 5445 5449 5447 5445 5442 5439 5437 5435
5582 5585 5574 5570 5576 5575 5576 5576 5574 5572 5570 5558 5552 5545 5533 5524 5516 5510 5503 5498 5492 5486 5481 5477 5473 5469 5467 5464 5460 5456 5454 5450 5445 5442 5437 5435 5434 5432 5430 5428 5426 5426 5424 5421
5577 5573 5563 5559 5573 5569 5567 5570 5569 5559 5551 5545 5538 5530 5524 5516 5506 5498 5489 5484 5479 5475 5471 5467 5464 5460 5455 5452 5448 5445 5443 5439 5434 5430 5426 5423 5420 5417 5415 5413 5414 5414 5414 5413